GW5556 Weather Reports


Display with metric or nautical units.
time (UTC)temp
F
wind
direction
speed
MPH
gust
MPH
rain 1hr
in
rain 24hr
in
rain mn
in
humidity
%
barometer
mb
20260505173025 74 206 6.0 20.0 0.00 0.00 0.00 31 1013.3
20260505171506 73 238 6.0 16.0 0.00 0.00 0.00 29 1013.5
20260505170006 73 190 8.0 19.0 0.00 0.00 0.00 32 1013.7
20260505164532 73 171 5.0 16.0 0.00 0.00 0.00 33 1013.9
20260505163012 72 245 7.0 12.0 0.00 0.00 0.00 32 1014.1
20260505161514 72 153 7.0 17.0 0.00 0.00 0.00 34 1014.3
20260505153016 69 167 4.0 10.0 0.00 0.00 0.00 37 1014.7
20260505151508 69 180 1.0 8.0 0.00 0.00 0.00 40 1014.7
20260505124512 58 205 1.0 6.0 0.00 0.00 0.00 56 1014.3
20260505123014 56 171 4.0 8.0 0.00 0.00 0.00 58 1014.2
20260505121510 54 148 1.0 3.0 0.00 0.00 0.00 61 1014.2
20260505120015 50 189 0.0 2.0 0.00 0.00 0.00 63 1014.3
20260505114531 48 140 0.0 1.0 0.00 0.00 0.00 64 1014.4
20260505113017 47 257 0.0 0.0 0.00 0.00 0.00 64 1014.2
20260505111513 46 260 0.0 2.0 0.00 0.00 0.00 66 1014.0
20260505101521 45 319 0.0 3.0 0.00 0.00 0.00 65 1013.6
20260505100009 46 319 0.0 4.0 0.00 0.00 0.00 65 1013.6
20260505094521 46 319 0.0 2.0 0.00 0.00 0.00 64 1013.6
20260505093012 46 319 0.0 1.0 0.00 0.00 0.00 64 1013.5
20260505091507 47 319 4.0 6.0 0.00 0.00 0.00 63 1013.3
20260505090044 48 275 0.0 2.0 0.00 0.00 0.00 60 1013.1
20260505084510 50 275 0.0 4.0 0.00 0.00 0.00 58 1013.1
20260505083019 50 252 0.0 1.0 0.00 0.00 0.00 59 1013.0
20260505081520 49 252 0.0 2.0 0.00 0.00 0.00 60 1012.8
20260505080012 50 252 0.0 3.0 0.00 0.00 0.00 58 1012.5
20260505074521 52 251 0.0 3.0 0.00 0.00 0.00 57 1012.1
20260505073012 50 252 0.0 2.0 0.00 0.00 0.00 61 1012.1
20260505071524 49 252 1.0 3.0 0.00 0.00 0.00 61 1012.1
20260505070025 50 253 0.0 3.0 0.00 0.00 0.00 61 1012.0
20260505064513 49 253 0.0 2.0 0.00 0.00 0.00 61 1012.1
20260505063016 49 253 0.0 2.0 0.00 0.00 0.00 61 1012.4
20260505061525 50 253 1.0 2.0 0.00 0.00 0.00 62 1012.4
20260505060017 50 253 0.0 1.0 0.00 0.00 0.00 61 1012.4
20260505054528 52 253 0.0 1.0 0.00 0.00 0.00 59 1012.3
20260505053023 52 253 0.0 2.0 0.00 0.00 0.00 58 1012.3
20260505051518 53 253 0.0 1.0 0.00 0.00 0.00 57 1012.2
20260505041526 53 225 0.0 4.0 0.00 0.00 0.00 58 1012.4
20260505040004 53 221 0.0 2.0 0.00 0.00 0.00 60 1012.4
20260505034507 53 221 0.0 1.0 0.00 0.00 0.00 59 1012.5
20260505033008 53 221 0.0 2.0 0.00 0.00 0.00 59 1012.5
20260505031505 54 221 0.0 1.0 0.00 0.00 0.00 58 1012.7
20260505030010 55 221 0.0 1.0 0.00 0.00 0.00 56 1012.7
20260505024518 56 221 0.0 0.0 0.00 0.00 0.00 53 1012.7
20260505023004 57 221 1.0 3.0 0.00 0.00 0.00 52 1012.7
20260505021528 58 221 0.0 1.0 0.00 0.00 0.00 51 1012.8
20260505020006 59 221 1.0 2.0 0.00 0.00 0.00 49 1012.7
20260505014508 60 221 0.0 0.0 0.00 0.00 0.00 46 1012.7
20260505013014 62 221 0.0 2.0 0.00 0.00 0.00 44 1012.5
20260505011512 63 221 1.0 2.0 0.00 0.00 0.00 43 1012.2
20260505010009 65 221 1.0 3.0 0.00 0.00 0.00 38 1012.1
20260505004516 67 221 0.0 2.0 0.00 0.00 0.00 36 1011.9
20260505003006 68 221 1.0 2.0 0.00 0.00 0.00 34 1011.8
20260505001516 69 223 0.0 4.0 0.00 0.00 0.00 33 1011.8
20260505000015 70 213 1.0 4.0 0.00 0.00 0.00 32 1011.8
20260504234517 71 169 1.0 6.0 0.00 0.00 0.00 31 1011.6
20260504233008 72 221 2.0 6.0 0.00 0.00 0.00 29 1011.4
20260504231514 73 208 2.0 11.0 0.00 0.00 0.00 29 1011.4
20260504230014 73 214 3.0 11.0 0.00 0.00 0.00 28 1011.3
20260504224523 74 211 6.0 13.0 0.00 0.00 0.00 28 1011.2
20260504223012 74 210 5.0 11.0 0.00 0.00 0.00 27 1011.3
20260504221510 75 167 6.0 11.0 0.00 0.00 0.00 28 1011.2
20260504220003 75 195 2.0 11.0 0.00 0.00 0.00 29 1011.2
20260504214503 75 232 5.0 13.0 0.00 0.00 0.00 27 1011.3
20260504213004 75 168 2.0 9.0 0.00 0.00 0.00 30 1011.2
20260504211504 75 171 3.0 9.0 0.00 0.00 0.00 28 1011.3
20260504210006 75 192 3.0 9.0 0.00 0.00 0.00 30 1011.3
20260504204509 74 195 4.0 11.0 0.00 0.00 0.00 29 1011.4
20260504203003 75 204 2.0 11.0 0.00 0.00 0.00 29 1011.4
20260504201504 74 205 2.0 14.0 0.00 0.00 0.00 30 1011.5
20260504200004 74 236 6.0 12.0 0.00 0.00 0.00 30 1011.7
20260504194507 74 278 5.0 16.0 0.00 0.00 0.00 31 1011.8
20260504193003 73 189 4.0 15.0 0.00 0.00 0.00 28 1011.8
20260504191504 73 231 5.0 13.0 0.00 0.00 0.00 29 1012.2
20260504190006 73 198 5.0 10.0 0.00 0.00 0.00 30 1012.2
20260504184504 73 331 3.0 14.0 0.00 0.00 0.00 32 1012.6
20260504183005 72 208 6.0 11.0 0.00 0.00 0.00 30 1012.9
20260504181503 71 173 4.0 11.0 0.00 0.00 0.00 32 1013.1
20260504180004 71 176 5.0 12.0 0.00 0.00 0.00 31 1013.2
20260504174506 71 159 5.0 10.0 0.00 0.00 0.00 33 1013.4